Weather in Yasenskaya Pereprava

Russia / Krasnodar Krai     46°15′05″N   38°17′39″E
temp.,
°C
wind,
m/s
gust,
m/s
humid.,
%
clouds,
%
prec.,
mm/h
press.,
hPa
HPBL,
m
17 june, thu
thu1700:00+23ne9188149 1.6 1005580
03:00+22ene8167778 3.4 1006616
06:00+21e91389100 0.3 1007580
09:00+23ese12137522 0.3 1008870
12:00+23sse9106974 0.0 10101171
15:00+21sw897742 0.8 1012900
18:00+22sw810713 0.2 1013919
21:00+21ssw677285 0.2 1015605
18 june, fri
fri1800:00+20s677931 0.0 1015384
03:00+19s46820 0.0 1016246
06:00+19ese337799 0.0 1017313
09:00+20ese337148 0.0 1017479
12:00+23ese1259100 0.0 1017549
15:00+24nw23575 0.0 1016716
18:00+25ne45648 0.0 1016824
21:00+22ne69840 0.1 1017359
19 june, sat
sat1900:00+20ne57830 0.0 1016214
03:00+19ne56820 0.0 1015190
06:00+19ene56810 0.0 1016205
09:00+23ene67710 0.0 1015445
12:00+27ene68672 0.0 1014472
15:00+27e1013584 0.0 1013608
18:00+27ene8135764 0.0 1012411
21:00+26ene12195642 0.0 1012480
20 june, sun
sun2000:00+24ene1119543 0.0 1011549
03:00+24e11195038 0.0 1012698
06:00+22e111854100 0.0 1011629
09:00+23e9135129 0.0 1012737
12:00+25e911550 0.3 1012806
15:00+27ese912580 0.3 1011498
18:00+28ese56650 0.0 1011232
21:00+26nne45700 0.0 101055
21 june, mon
mon2100:00+25e812710 0.0 1010222
03:00+23e812580 0.0 1010356
06:00+22e610560 0.0 1011357
09:00+24e68552 0.0 1011461
12:00+27e810541 0.0 1010499
15:00+28ese685838 0.0 1010465
18:00+29e585756 0.0 1009237
21:00+26e467070 0.0 100962